San Sebastian/Fu, Spain

10:53 AM CET on February 24, 2017 (GMT +0100)
San Sebastian

Weather History for LESO - September, 2012

Change the Weather History Date:

Sunday, September 23, 2012

  Actual Average Record
Temperature  
Mean Temperature 83 °F -  
Max Temperature 89 °F 69 °F 89 °F (2000)
Min Temperature 77 °F 56 °F 53 °F (2005)
Cooling Degree Days 18    
Growing Degree Days 33 (Base 50)    
Moisture  
Dew Point 55 °F    
Average Humidity 42    
Maximum Humidity 51    
Minimum Humidity 27    
Precipitation  
Precipitation 0.00 in - - ()
Sea Level Pressure  
Sea Level Pressure 29.65 in    
Wind  
Wind Speed 9 mph ()    
Max Wind Speed 26 mph    
Max Gust Speed 44 mph    
Visibility 6.2 miles    
Events Rain    
Averages and records for this station are not official NWS values.
T = Trace of Precipitation, MM = Missing Value Source: Averaged Metar Reports

Daily Weather History Graph

Daily Weather History Graph

Search for Another Location

Airport or City:

Trip Planner

Search our weather history database for the weather conditions in past years. The results will help you decide how hot, cold, wet, or windy it might be!

Date:

Astronomy

Sep. 23, 2012 Rise Set
Actual Time 7:55 AM CEST 8:02 PM CEST
Civil Twilight 7:27 AM CEST 8:30 PM CEST
Nautical Twilight 6:53 AM CEST 9:03 PM CEST
Astronomical Twilight 6:19 AM CEST 9:37 PM CEST
Moon 4:00 PM CEST (9/23) 12:42 AM CEST (9/23)
Length of Visible Light 13h 03m
Length of Day
12h 06m
First Quarter, 57% of the Moon is Illuminated
Sep 23
First Quarter
Sep 30
Full
Oct 8
Last Quarter
Oct 15
New
Oct 22
First Quarter

Hourly Weather History & Observations

Time (CEST) Temp. Heat Index Dew Point Humidity Pressure Visibility Wind Dir Wind Speed Gust Speed Precip Events Conditions
5:30 AM 82.4 °F 82.0 °F 57.2 °F 42% 29.71 in - SSW 17.3 mph - N/A   Clear
6:30 AM 80.6 °F 80.8 °F 57.2 °F 45% 29.71 in - SSW 10.4 mph - N/A   Clear
7:00 AM 80.6 °F 80.8 °F 57.2 °F 45% 29.71 in - SSW 8.1 mph - N/A   Clear
7:30 AM 80.6 °F 80.8 °F 57.2 °F 45% 29.71 in - SSW 8.1 mph - N/A   Clear
8:00 AM 80.6 °F 81.1 °F 59.0 °F 48% 29.71 in - SSW 8.1 mph - N/A   Clear
8:30 AM 78.8 °F - 59.0 °F 51% 29.71 in - South 9.2 mph - N/A   Clear
9:00 AM 78.8 °F - 59.0 °F 51% 29.71 in - South 4.6 mph - N/A   Clear
9:30 AM 78.8 °F - 59.0 °F 51% 29.71 in - South 5.8 mph - N/A   Clear
10:00 AM 78.8 °F - 59.0 °F 51% 29.71 in - SE 4.6 mph - N/A   Clear
10:30 AM 78.8 °F - 59.0 °F 51% 29.71 in - Variable 2.3 mph - N/A   Clear
11:00 AM 80.6 °F 80.8 °F 57.2 °F 45% 29.71 in - Variable 1.2 mph - N/A   Clear
11:30 AM 80.6 °F 80.5 °F 55.4 °F 42% 29.68 in - Variable 2.3 mph - N/A   Clear
12:00 PM 80.6 °F 80.5 °F 55.4 °F 42% 29.71 in - South 9.2 mph - N/A   Clear
12:30 PM 82.4 °F 81.7 °F 55.4 °F 39% 29.68 in - South 6.9 mph - N/A   Clear
1:00 PM 82.4 °F 81.4 °F 53.6 °F 37% 29.68 in - SSE 6.9 mph - N/A   Clear
1:30 PM 82.4 °F 81.4 °F 53.6 °F 37% 29.65 in - SE 9.2 mph - N/A   Clear
2:00 PM 82.4 °F - 51.8 °F 35% 29.65 in - SSE 6.9 mph - N/A   Clear
2:30 PM 82.4 °F - 51.8 °F 35% 29.65 in - Variable 1.2 mph - N/A   Clear
4:30 PM 89.6 °F - 51.8 °F 27% 29.56 in - SSW 16.1 mph 31.1 mph N/A   Clear
5:00 PM 87.8 °F - 51.8 °F 29% 29.56 in - SW 8.1 mph - N/A   Clear
5:30 PM 86.0 °F 84.2 °F 53.6 °F 33% 29.56 in 6.2 mi West 3.5 mph - N/A   Mostly Cloudy
6:00 PM 82.4 °F - 50.0 °F 32% 29.59 in 6.2 mi SW 26.5 mph 43.7 mph N/A   Mostly Cloudy
6:30 PM 77.0 °F - 53.6 °F 44% 29.62 in 6.2 mi SSW 23.0 mph 35.7 mph N/A Rain Light Rain
7:00 PM 78.8 °F - 53.6 °F 42% 29.59 in 6.2 mi SW 15.0 mph - N/A   Mostly Cloudy
7:30 PM 78.8 °F - 53.6 °F 42% 29.59 in 6.2 mi SSW 13.8 mph - N/A   Scattered Clouds
8:00 PM 77.0 °F - 55.4 °F 47% 29.56 in 6.2 mi South 12.7 mph - N/A   Partly Cloudy
8:30 PM 80.6 °F - 51.8 °F 37% 29.56 in 6.2 mi SSW 17.3 mph - N/A   Partly Cloudy
9:00 PM 80.6 °F 80.3 °F 53.6 °F 39% 29.56 in 6.2 mi SSW 19.6 mph 33.4 mph N/A   Partly Cloudy
9:30 PM 78.8 °F - 53.6 °F 42% 29.56 in 6.2 mi SSW 18.4 mph 32.2 mph N/A   Partly Cloudy